Regional Weather Roundup
Issued by NWS Charleston, SC

Current Version | Previous Version | Text Only | Print | Product List | Glossary Off
Versions: 1 2 3 4 5 6 7 8 9 10 11 12 13 14 15 16 17 18 19 20 21 22 23 24 25 26 27 28 29 30 31 32 33 34 35 36 37 38 39 40 41 42 43 44 45 46 47 48 49 50

000
ASUS42 KCHS 212027
RWRCHS

REGIONAL WEATHER ROUNDUP
NATIONAL WEATHER SERVICE CHARLESTON SC
400 PM EDT MON AUG 21 2017

NOTE: "FAIR" INDICATES FEW OR NO CLOUDS BELOW 12,000 FEET WITH NO
SIGNIFICANT WEATHER AND/OR OBSTRUCTIONS TO VISIBILITY.

NOT ALL STATIONS ARE QUALITY CONTROLLED. USE DATA WITH CAUTION...
ESPECIALLY DEWPOINT OBSERVATIONS.

SCZ027-030-031-034>040-042>050-212100-
...SOUTHEAST SOUTH CAROLINA...

CITY           SKY/WX    TMP DP  RH WIND       PRES   REMARKS
N CHARLESTON   HVY RAIN  74  73  97 VRB3      30.18R FOG
WATERFRONT PRK   N/A     84  78  82 SE9       29.99F HX  95
JOHNS ISLAND   FAIR      82  75  78 NW13      30.16R
PINOPOLIS        N/A     81  75  83 VRB2      30.09R
MONCKS CORNER  FAIR      73  72  94 S3        30.16S
SUMMERVILLE    MOCLDY    75  72  88 W3        30.18R
BEAUFORT MCAS  PTSUNNY   85  81  88 CALM      30.15R HX 100
BEAUFORT ARPT  FAIR      86  77  74 CALM      30.14S HX  97
HILTON HEAD IS CLOUDY    84  77  79 E5        30.15F HX  94
WALTERBORO     RAIN      73  72  94 SE9       30.18S
ALLENDALE      NOT AVBL

...SOUTHERN MIDLANDS AND PEE DEE...

CITY           SKY/WX    TMP DP  RH WIND       PRES   REMARKS
GEORGETOWN     MOCLDY    82  81  94 SE7       30.16S HX  95
KINGSTREE      FAIR      84  75  74 SE10      30.15R HX  92
ORANGEBURG     SUNNY     91  72  53 SE8       30.14S HX  98
BARNWELL       FAIR      81  75  83 SE14      30.16R
AIKEN          FAIR      90  70  51 E6        30.17S HX  95
MANNING        FAIR      86  79  79 S16       30.15R HX  99
COLUMBIA       MOSUNNY   92  72  51 E8        30.12F HX  99
SUMTER         SUNNY     92  71  50 E9        30.11F HX  99
FLORENCE       PTSUNNY   87  75  67 SE12      30.15R HX  96
MYRTLE BEACH   PTSUNNY   86  79  79 SE12      30.16  HX  99
N MYRTLE BEACH CLOUDY    84  77  79 SE8       30.15F HX  94

$$

GAZ063-065-086>088-099>101-113>116-118-119-134>141-150-212100-
...SOUTHEAST GEORGIA...

CITY           SKY/WX    TMP DP  RH WIND       PRES   REMARKS
SAVANNAH ARPT  CLOUDY    79  75  87 S7        30.15F
HUNTER AAF     CLOUDY    77  73  88 CALM      30.13S
FORT STEWART   CLOUDY    79  76  91 SE3       30.12F
STATESBORO     CLOUDY    81  71  71 SW3       30.15R
SYLVANIA       CLOUDY    83  76  81 CALM      30.16R HX  91
CLAXTON        LGT RAIN  78  77  95 CALM      30.14S

...CSRA...CENTRAL AND FAR SOUTHEAST GEORGIA...

CITY           SKY/WX    TMP DP  RH WIND       PRES   REMARKS
THOMSON        MOSUNNY   90  72  55 SW3       30.18F HX  96
AUGUSTA-BUSH   MOSUNNY   92  76  59 SE8       30.12F HX 104
AUGUSTA-DANIEL SUNNY     92  68  45 SE7       30.14F HX  96
SWAINSBORO     FAIR      82  73  74 S9        30.15R THUNDER
VIDALIA        LGT RAIN  77  75  94 SE6       30.15R
EASTMAN        MOCLDY    88  61  40 S16G23    30.14S
HAZLEHURST     FAIR      87  65  47 SE7       30.12F
ALMA           CLOUDY    83  76  79 NE3       30.13F HX  91
WAYCROSS       CLOUDY    85  72  63 SE8       30.13S HX  91
JESUP          FAIR      88  73  62 E8        30.14R HX  96
BAXLEY         PTSUNNY   81  73  78 NE6       30.13F
BRUNSWICK      CLOUDY    81  73  78 NE10      30.15R
SAINT SIMONS   CLOUDY    82  77  84 NE5       30.12F HX  90

$$

SCZ027-028-034-036>038-045-046-048>050-GAZ119-141-212100-
...LAKE AND SUPPLEMENTAL COASTAL OBSERVATIONS...

STATION/POSITION TIME  TEMP    WIND        PRES    WAVE   SWELL
                       AIR SEA DIR/SP/G            HT/PER HT/PER/DIR
                 (UTC) (F)     (DEG/KT/KT) (MB)    (FT/S) (FT/S/D)
WINYAH BAY       1945   83     120/  7     1021.0S
LAKE MURRAY      2020   90     110/  6/ 11 1019.0
ACE BASIN NERRS  1945   84     120/  1     1021.0S
FORT PULASKI     2000   81 87  110/  5/  6 1021.2
SAPELO ISLAND    2000   75      30/ 10     1021.0

$$

ANZ835-935-AMZ111-154-330-350-352-354-370-450-454-472-212100-
...C-MAN AND BUOY OBSERVATIONS...

STATION/POSITION TIME  TEMP    WIND        PRES    WAVE   SWELL
                       AIR SEA DIR/SP/G            HT/PER HT/PER/DIR
                 (UTC) (F)     (DEG/KT/KT) (MB)    (FT/S) (FT/S/D)
BUOY 41004       2000   83 85  100/ 10/ 12 1020.5
BUOY 41008       1950   79 85  110/ 17/ 21 1019.7F   3/ 8   2/130/ 8
FOLLY BEACH CMAN 2000   83     110/  7/  8 1021.6S
CAPERS NEARSHORE 2008   83 86  100/  6/ 10 1020.7F
FRIPP NEARSHORE  2008   83     120/  8/ 12 1020.5R


STATION/POSITION TIME  TEMP    WIND        PRES    WAVE   SWELL
                       AIR SEA DIR/SP/G            HT/PER HT/PER/DIR
                 (UTC) (F)     (DEG/KT/KT) (MB)    (FT/S) (FT/S/D)
5E ST. MARYS GA  2000      84                N/A     2/ 8
FRYING PAN BUOY  2000   83 84  140/ 10/ 12 1020.7
BUOY 41025       1950   82 85  190/  4/  4 1021.2F   2/ 9   2/120/ 9
CAPE LOOKOUT NC  2000   81     140/  4/  5 1020.9F
BUOY 41002       1950   83 85  100/  6/  8 1020.9F   3/ 8   3/100/ 8
BUOY 41010       2000   85 85   90/ 10/ 12 1019.3
ST AUGUSTINE FL  2000   83 83  100/  5/  5 1019.7F


$$




USA.gov is the U.S. government's official web portal to all federal, state and local government web resources and services.